TimeEST,TemperatureF,Dew PointF,Humidity,Sea Level PressureIn,VisibilityMPH,Wind Direction,Wind SpeedMPH,Gust SpeedMPH,PrecipitationIn,Events,Conditions,WindDirDegrees,DateUTC
12:53 AM,21.9,19.0,89,29.86,5.0,Calm,Calm,-,N/A,,Clear,0,2013-02-14 05:53:00
1:53 AM,21.9,18.0,85,29.87,5.0,Calm,Calm,-,N/A,,Clear,0,2013-02-14 06:53:00
2:53 AM,21.9,18.0,85,29.87,4.0,Calm,Calm,-,N/A,,Scattered Clouds,0,2013-02-14 07:53:00
3:53 AM,21.9,19.0,89,29.88,3.0,Calm,Calm,-,N/A,,Overcast,0,2013-02-14 08:53:00
4:53 AM,25.0,21.0,85,29.90,5.0,WSW,6.9,-,N/A,,Overcast,240,2013-02-14 09:53:00
5:06 AM,24.8,21.2,86,29.85,5.0,WSW,4.6,-,N/A,,Overcast,250,2013-02-14 10:06:00
5:53 AM,27.0,23.0,85,29.90,6.0,SW,4.6,-,N/A,,Overcast,230,2013-02-14 10:53:00
6:09 AM,26.6,23.0,86,29.85,6.0,SSW,4.6,-,N/A,,Overcast,200,2013-02-14 11:09:00
6:53 AM,27.0,21.9,81,29.91,5.0,South,4.6,-,N/A,,Haze,170,2013-02-14 11:53:00
7:00 AM,26.6,23.0,86,29.86,5.0,South,5.8,-,N/A,,Overcast,180,2013-02-14 12:00:00
7:24 AM,26.6,23.0,86,29.86,7.0,SSW,6.9,-,N/A,,Overcast,200,2013-02-14 12:24:00
7:53 AM,28.0,23.0,81,29.92,7.0,South,8.1,-,N/A,,Overcast,190,2013-02-14 12:53:00
8:53 AM,28.9,21.9,75,29.92,7.0,South,10.4,-,N/A,,Overcast,180,2013-02-14 13:53:00
9:53 AM,30.9,21.9,69,29.91,8.0,South,11.5,-,N/A,,Mostly Cloudy,180,2013-02-14 14:53:00
10:53 AM,34.0,23.0,64,29.90,10.0,South,8.1,-,N/A,,Mostly Cloudy,170,2013-02-14 15:53:00
11:53 AM,35.1,25.0,67,29.88,7.0,SSW,11.5,-,N/A,,Overcast,210,2013-02-14 16:53:00
12:39 PM,35.6,24.8,65,29.83,7.0,SW,13.8,24.2,N/A,,Overcast,220,2013-02-14 17:39:00
12:53 PM,35.1,26.1,70,29.87,7.0,SSW,11.5,-,N/A,,Overcast,210,2013-02-14 17:53:00
1:17 PM,35.6,26.6,70,29.81,7.0,SSW,11.5,-,N/A,,Overcast,210,2013-02-14 18:17:00
1:53 PM,36.0,27.0,70,29.85,7.0,SSW,12.7,20.7,N/A,,Overcast,200,2013-02-14 18:53:00
2:53 PM,37.0,27.0,67,29.84,7.0,South,11.5,-,N/A,,Overcast,190,2013-02-14 19:53:00
2:59 PM,37.4,26.6,65,29.79,9.0,South,9.2,-,0.00,Snow,Light Snow,190,2013-02-14 19:59:00
3:53 PM,36.0,28.0,73,29.83,9.0,South,6.9,-,0.00,Rain-Snow,Light Rain,190,2013-02-14 20:53:00
4:38 PM,33.8,30.2,87,29.79,3.0,South,6.9,-,0.00,Snow,Light Snow,190,2013-02-14 21:38:00
4:53 PM,34.0,30.9,89,29.83,3.0,South,6.9,-,0.00,Snow,Light Snow,190,2013-02-14 21:53:00
5:11 PM,33.8,30.2,87,29.78,2.5,South,5.8,-,0.01,Snow,Light Snow,180,2013-02-14 22:11:00
5:53 PM,34.0,30.9,89,29.82,2.5,South,8.1,-,0.01,Rain-Snow,Light Rain,180,2013-02-14 22:53:00
6:05 PM,33.8,30.2,87,29.78,3.0,South,6.9,-,0.00,Rain-Snow,Light Rain,180,2013-02-14 23:05:00
6:53 PM,34.0,32.0,92,29.82,6.0,South,6.9,-,0.00,Rain,Light Rain,180,2013-02-14 23:53:00
7:35 PM,35.6,30.2,81,29.78,5.0,SSW,17.3,21.9,0.03,Snow,Light Snow,210,2013-02-15 00:35:00
7:53 PM,35.1,30.9,85,29.82,5.0,SSW,13.8,-,0.03,Rain,Light Rain,210,2013-02-15 00:53:00
8:09 PM,33.8,30.2,87,29.78,4.0,SSW,12.7,-,0.01,Snow,Light Snow,210,2013-02-15 01:09:00
8:46 PM,33.8,30.2,87,29.77,3.0,SSW,12.7,-,0.02,Snow,Light Snow,210,2013-02-15 01:46:00
8:53 PM,33.1,30.9,92,29.81,3.0,SSW,11.5,-,0.03,Snow,Light Snow,210,2013-02-15 01:53:00
9:25 PM,33.8,32.0,93,29.76,7.0,SSW,10.4,-,0.00,Rain-Snow,Light Rain,200,2013-02-15 02:25:00
9:53 PM,35.1,32.0,89,29.80,8.0,SSW,9.2,-,0.00,Rain,Light Rain,200,2013-02-15 02:53:00
10:53 PM,37.0,32.0,82,29.78,10.0,SW,15.0,23.0,0.00,Rain,Light Rain,220,2013-02-15 03:53:00
11:32 PM,37.4,30.2,75,29.74,9.0,SW,23.0,33.4,N/A,,Overcast,230,2013-02-15 04:32:00
11:53 PM,37.0,30.0,76,29.78,10.0,WSW,21.9,29.9,N/A,,Overcast,240,2013-02-15 04:53:00